Вернуться в каталог

STARLINK-3644

АктивенСвязьVLEO
NORAD 51987·PAYLOAD·🇺🇸 United States

Запущен Mar 9, 2022 с Cape Canaveral Space Force Station

Loading…

Ближайшие Пролёты (ближайшие 24 часа)

TLE

СвежийSource: CelesTrak SupGP

Эпоха: Sep 14, 2026, 21:56 UTC

1 51987C 22025AH  26257.91437500  .00046518  00000+0  13747-2 0  2576
2 51987  53.1572 253.7496 0001271  94.3271 285.3473 15.34359691    17

Отслеживайте STARLINK-3644 в реальном времени с AllMySat

Download on the App Store